Wind_Speed
21 22 22 21 19 21 23 26 28 28 32 36 30 22 28 26 36 31 23 23 21 27 32 33 29 27 30 36 37 28 39 39 36 39 46 48 57 58 59 63 64 63 62 63 62 53 46 40 25
20 19 24 23 24 19 16 25 28 27 28 33 34 35 30 37 17 35 29 28 27 24 24 29 28 37 35 32 34 38 39 41 44 49 55 56 60 62 63 64 65 64 63 59 51 44 33 24 15
14 17 20 22 26 24 24 24 26 26 30 31 29 26 25 36 44 32 34 30 31 33 32 27 30 34 37 38 40 42 45 50 54 58 58 60 64 67 67 64 61 54 50 46 39 30 22 15 11
14 6 15 18 21 21 31 28 27 28 31 28 28 26 25 27 32 35 34 32 33 32 35 39 39 40 41 44 45 47 48 50 53 56 58 62 64 61 57 51 47 43 38 34 29 21 15 11 9
12 4 10 15 25 28 26 30 32 29 29 29 27 27 25 24 25 25 26 28 32 32 33 33 36 39 41 42 45 47 49 52 55 53 52 50 45 42 39 39 39 35 30 26 23 16 12 10 2
10 6 7 9 12 15 21 29 33 34 32 30 30 29 29 29 29 31 31 33 34 35 37 37 39 40 43 46 47 48 49 47 42 37 36 36 35 34 34 32 29 26 25 20 17 9 7 4 1
3 3 6 8 9 11 7 16 18 21 25 29 31 32 34 36 36 36 36 36 37 37 37 38 39 40 40 42 42 38 34 29 29 31 33 32 29 26 28 26 22 21 19 15 12 5 5 4 6
7 8 6 3 3 11 12 12 13 14 18 22 24 23 25 29 31 28 24 23 22 23 24 25 27 28 26 25 23 22 23 26 27 28 29 28 25 22 22 20 15 20 18 13 9 2 6 4 6
13 11 10 4 3 10 6 5 7 6 9 12 14 12 12 13 13 13 12 12 13 13 14 13 12 11 12 14 17 19 22 22 23 24 23 20 17 15 18 14 11 22 17 10 5 1 9 4 5
3 9 11 7 4 10 6 5 8 4 5 6 5 5 4 4 5 5 3 3 3 5 5 5 7 9 11 14 15 17 17 16 17 17 16 12 10 12 13 9 13 14 12 9 4 2 8 6 4
19 5 9 12 9 8 14 6 10 3 4 5 4 3 2 2 3 4 3 3 4 5 5 7 9 8 8 11 14 13 11 12 14 12 11 4 7 9 5 9 10 10 9 10 4 1 6 8 7
25 18 7 9 11 10 10 8 8 18 1 1 1 1 3 5 6 7 6 6 7 7 7 8 9 7 9 10 11 11 11 11 11 7 6 2 9 6 6 8 13 15 14 12 7 3 8 11 12
27 27 20 12 7 7 10 8 11 15 11 7 5 5 7 9 10 10 11 12 10 8 8 9 9 9 9 8 10 11 11 12 9 6 6 5 3 1 7 10 10 12 13 14 9 4 7 13 15
30 25 25 22 18 14 10 5 8 11 12 10 7 5 8 10 11 12 12 11 9 9 7 8 9 7 8 10 10 10 11 11 10 7 8 8 6 7 13 11 15 14 17 14 11 6 6 9 15
28 29 24 17 19 16 21 16 11 6 5 7 7 7 8 7 7 6 5 3 5 7 8 10 14 14 15 15 12 11 9 9 10 9 6 11 12 12 16 21 21 21 16 14 12 7 7 8 9
27 29 27 19 17 18 19 17 17 14 11 10 9 8 9 8 6 6 6 6 8 10 13 15 17 17 17 16 18 14 13 13 10 12 11 11 15 19 21 20 22 23 24 21 16 16 15 12 10
21 23 24 25 22 22 20 19 17 14 13 11 10 9 9 10 11 11 11 11 10 10 11 13 15 17 19 20 19 20 18 16 16 18 18 18 19 19 22 22 22 24 26 26 27 26 23 19 19
15 19 20 18 18 17 19 22 21 19 17 16 16 15 14 14 14 13 13 14 15 15 16 16 15 15 17 19 20 21 20 21 21 22 24 23 26 26 25 24 23 24 24 23 26 29 29 28 25
8 11 13 15 16 16 15 16 16 15 17 17 17 15 14 15 14 13 13 14 16 17 18 18 19 19 19 19 22 23 23 24 24 24 25 27 30 29 30 28 29 28 28 26 24 29 30 35 32
8 8 9 11 12 12 14 12 10 12 11 14 15 13 12 14 16 17 17 17 19 21 22 21 21 22 23 23 26 29 31 31 29 28 27 28 27 29 30 30 31 31 31 31 29 27 28 31 38
11 9 7 8 9 11 11 11 13 13 11 13 15 15 15 15 18 19 18 18 18 18 20 23 25 28 30 30 31 32 34 33 33 34 35 34 31 31 31 31 31 32 33 32 33 31 28 32 32
15 13 11 9 8 10 9 12 8 9 10 15 15 15 15 15 16 19 20 19 20 22 25 26 28 29 32 33 34 37 40 39 37 36 36 36 35 35 34 36 34 35 36 34 33 34 33 30 32
21 18 16 14 12 12 13 8 14 13 14 14 15 16 17 19 19 22 23 25 25 26 27 29 31 31 33 36 38 41 42 44 44 42 39 40 39 39 37 37 37 37 38 36 35 35 34 34 33
26 23 21 19 18 16 16 18 11 14 17 18 19 21 25 24 24 25 27 30 30 30 31 33 33 35 36 40 41 42 45 48 48 49 48 46 45 44 43 40 39 38 37 37 35 35 33 32 34
32 29 26 24 23 23 21 22 20 18 18 20 17 21 26 28 30 29 29 32 33 35 36 38 39 40 42 43 46 47 51 53 52 54 53 51 47 44 43 43 41 39 38 38 35 37 36 36 37
38 35 33 32 27 28 24 26 26 23 21 22 22 23 29 31 33 35 35 36 36 38 39 41 42 43 45 47 47 48 51 53 57 59 59 57 55 50 48 46 43 42 41 41 38 39 39 40 41
45 42 40 37 36 35 31 29 31 28 29 28 28 31 28 34 36 36 38 38 40 40 41 43 45 46 48 51 52 54 57 58 58 62 62 60 57 55 51 49 45 43 42 42 41 41 42 45 47
50 49 47 44 42 41 41 39 33 28 34 32 32 33 35 34 40 40 39 40 43 43 45 46 46 49 51 53 55 55 58 62 64 67 67 64 62 60 56 53 51 48 46 44 44 43 47 51 52
54 53 53 50 48 46 49 43 40 37 40 38 37 36 37 40 38 44 44 43 46 47 49 49 49 51 54 56 58 58 60 62 66 68 68 67 65 63 60 57 54 51 49 48 47 47 48 52 56
56 55 55 57 54 54 52 54 44 45 47 45 45 44 44 43 44 46 47 47 51 52 53 54 54 55 58 60 61 63 65 67 69 72 71 71 68 67 63 60 57 54 51 50 49 49 51 57 61
Wind_Direction
176 176 187 193 205 199 203 196 198 196 202 207 200 196 219 207 221 207 208 215 220 227 233 235 225 235 243 246 248 257 245 250 266 259 270 281 280 290 294 298 301 305 306 307 310 314 316 315 326
172 182 180 184 188 199 194 198 197 199 204 206 210 218 218 207 227 222 233 235 212 225 236 237 241 227 225 243 243 251 261 260 260 267 278 291 298 301 303 306 306 305 306 308 313 316 318 324 336
166 181 186 194 194 199 188 197 215 206 209 208 206 212 223 224 233 238 234 240 236 228 230 232 238 238 245 245 249 265 266 262 283 288 292 296 296 298 297 296 299 303 306 312 318 320 322 331 326
100 130 204 200 203 204 197 197 206 223 219 223 223 225 222 226 233 239 243 241 242 241 244 250 248 255 263 269 271 276 281 281 284 288 290 290 290 293 296 299 301 304 311 314 320 330 328 315 321
109 183 179 206 214 213 212 213 218 213 221 229 230 233 233 235 234 233 240 245 247 252 254 255 256 258 264 269 272 276 280 282 285 290 290 292 295 298 305 305 307 310 312 315 319 327 302 316 301
140 246 173 208 218 216 222 225 229 241 246 233 233 235 240 244 246 247 249 252 256 257 261 262 265 267 272 274 276 278 281 288 294 295 296 298 304 307 315 313 317 319 326 326 327 338 316 321 276
39 215 210 193 206 211 234 241 235 235 238 243 245 245 248 252 255 258 260 261 263 263 265 266 268 270 273 277 280 284 290 295 297 299 300 306 314 319 322 326 336 344 342 343 341 15 87 84 39
173 169 256 210 176 208 233 242 240 256 257 252 249 249 250 253 255 254 257 259 263 266 266 268 269 271 273 277 285 291 297 297 302 303 306 313 324 328 323 345 340 338 341 332 331 82 140 132 93
210 191 181 131 173 170 169 173 159 186 218 229 235 231 233 238 241 246 256 262 267 268 267 269 269 272 283 289 295 297 302 307 306 308 313 325 344 347 323 335 312 330 347 320 317 23 155 156 145
100 180 205 156 156 127 100 166 155 138 197 197 200 187 198 220 229 233 240 259 261 266 266 271 277 288 304 296 299 303 305 311 315 315 318 339 29 6 346 337 309 349 341 326 306 309 171 191 193
54 100 185 183 169 185 155 142 144 49 196 187 140 120 152 216 202 206 231 279 277 273 277 280 287 293 290 287 290 302 312 321 322 317 318 22 78 174 30 18 15 17 1 358 333 301 195 213 219
48 57 112 157 177 177 172 181 157 192 259 208 229 274 310 298 293 292 284 284 292 290 285 276 283 275 284 289 297 314 324 324 315 308 293 180 124 134 40 28 26 25 29 23 16 307 223 223 244
47 50 62 85 115 169 172 183 198 208 269 272 271 286 305 298 301 299 300 300 296 286 295 299 307 306 313 328 332 332 333 327 326 300 267 233 249 41 19 348 3 1 2 25 24 339 267 248 251
51 56 59 77 87 87 86 129 216 238 260 270 274 307 302 296 296 293 293 299 306 314 315 320 321 322 315 320 330 332 336 337 328 297 253 258 254 290 320 337 334 331 329 339 357 346 282 266 249
53 57 57 78 79 64 38 46 59 47 4 334 338 332 322 315 301 297 302 342 354 350 338 328 321 319 319 316 318 334 348 351 340 335 282 254 264 274 309 318 314 313 303 308 306 300 290 265 246
51 57 60 66 61 32 34 31 39 38 42 26 25 10 351 345 344 339 342 2 5 351 341 336 335 331 326 327 327 333 326 325 323 326 320 289 276 275 291 292 279 292 295 289 286 290 278 251 237
44 50 53 52 50 44 54 49 46 36 41 30 25 17 12 8 2 2 355 353 354 351 347 343 340 335 326 321 321 318 314 317 313 313 309 303 294 290 289 294 288 274 274 279 281 278 276 269 260
31 43 49 47 48 52 53 55 55 54 53 53 48 46 44 42 36 27 19 13 11 3 354 350 342 336 330 324 320 314 310 310 309 305 304 297 293 292 291 292 292 293 290 290 282 271 266 264 259
8 22 35 44 48 33 43 45 40 51 57 54 50 43 37 33 31 25 19 19 18 13 7 2 358 353 347 340 335 328 320 313 309 304 297 293 293 292 290 287 289 289 288 289 283 279 268 260 260
325 343 11 22 30 42 24 35 22 12 16 36 34 25 25 22 14 15 10 9 8 9 14 10 5 1 358 351 344 338 333 327 322 316 307 300 294 290 286 287 286 287 287 285 285 280 277 268 254
303 307 324 349 359 359 10 17 29 342 358 28 20 10 5 2 359 358 359 357 352 355 1 357 355 356 356 355 355 349 347 341 330 323 318 313 304 296 293 293 287 287 279 277 279 280 277 277 267
292 292 296 304 315 326 346 344 356 354 327 20 11 3 1 3 -0 355 351 344 340 341 345 347 347 348 350 350 350 349 348 346 341 333 323 317 312 306 302 298 295 287 281 276 274 275 276 275 273
282 286 287 291 296 301 301 316 327 337 354 333 340 343 344 339 344 343 345 347 350 350 347 342 342 343 345 346 346 346 345 345 342 339 332 323 318 312 306 298 295 289 281 276 274 274 276 275 273
273 277 285 285 287 287 294 298 304 322 318 324 324 333 328 328 334 337 337 339 341 344 343 341 340 341 340 339 341 342 342 343 342 340 335 331 323 315 309 300 294 290 283 278 276 275 271 276 277
265 268 273 278 282 284 285 288 291 298 311 308 317 311 320 325 327 329 332 332 334 337 338 338 338 339 339 338 337 339 341 341 340 341 336 332 325 317 309 303 298 292 287 279 277 277 277 278 279
259 263 266 271 274 275 283 286 286 289 291 292 295 307 317 319 321 323 326 326 329 329 332 331 333 334 336 335 334 335 338 337 338 339 338 333 328 321 313 307 300 293 288 281 276 276 277 277 278
259 261 262 265 269 275 274 276 286 294 295 298 303 306 308 310 311 315 318 319 321 324 324 326 328 331 331 332 333 334 334 335 337 337 335 332 329 323 315 309 302 293 288 281 276 277 280 280 282
258 259 262 263 264 268 272 273 275 284 288 293 296 299 302 301 302 307 311 313 314 316 318 320 324 326 327 329 331 331 330 333 336 335 333 331 327 322 317 309 305 299 294 288 284 282 281 281 284
254 258 262 264 267 268 269 273 274 278 280 282 286 290 294 295 296 298 302 305 306 310 312 317 320 321 324 326 328 327 329 331 332 333 331 330 326 324 318 311 305 300 294 291 288 285 283 285 288
252 256 260 263 264 266 271 274 276 277 278 282 286 289 292 294 295 297 299 301 303 307 311 314 316 320 323 323 324 325 327 329 330 330 329 329 326 324 319 313 307 303 299 295 293 292 293 294 293
Height
10962 10966 10970 10974 10977 10979 10981 10982 10986 10989 10994 10996 11000 11005 11005 11001 10998 11005 11008 11009 11011 11012 11011 11011 11013 11014 11013 11011 11010 11007 11007 11004 11001 10998 10994 10992 10987 10983 10980 10975 10970 10964 10959 10955 10955 10954 10953 10953 10953
10963 10966 10970 10973 10977 10980 10984 10985 10987 10989 10991 10994 10998 11001 11000 11001 11000 11004 11008 11009 11009 11010 11010 11010 11011 11010 11009 11010 11008 11007 11005 11003 11000 10996 10991 10985 10980 10975 10970 10966 10961 10956 10953 10950 10947 10949 10948 10948 10949
10963 10966 10968 10974 10977 10980 10984 10986 10989 10990 10991 10993 10995 10998 10998 11000 11002 11004 11007 11007 11008 11008 11009 11008 11009 11008 11008 11007 11005 11003 11001 10997 10991 10988 10984 10980 10975 10970 10967 10963 10958 10953 10946 10943 10943 10944 10943 10944 10946
10965 10969 10971 10973 10976 10978 10982 10985 10988 10990 10991 10991 10992 10995 10997 10998 11000 11002 11002 11004 11005 11004 11005 11004 11004 11004 11003 11001 11000 10997 10995 10993 10990 10986 10982 10976 10971 10964 10960 10956 10952 10947 10943 10940 10940 10940 10941 10941 10942
10966 10965 10970 10972 10975 10977 10980 10983 10986 10989 10990 10991 10992 10993 10994 10996 10997 10998 10999 11000 11000 11000 11001 11000 11000 10999 10997 10996 10994 10993 10990 10987 10983 10980 10975 10969 10964 10960 10956 10952 10948 10943 10939 10936 10935 10937 10938 10939 10940
10971 10970 10969 10972 10974 10978 10980 10981 10983 10986 10988 10989 10989 10989 10990 10992 10993 10994 10995 10995 10996 10996 10996 10995 10995 10993 10991 10988 10987 10986 10983 10981 10977 10972 10967 10963 10961 10957 10953 10948 10944 10941 10938 10934 10933 10933 10936 10939 10939
10974 10972 10974 10973 10976 10977 10977 10978 10980 10982 10984 10985 10986 10986 10987 10988 10988 10988 10989 10990 10990 10990 10990 10989 10988 10987 10986 10983 10981 10980 10978 10976 10972 10967 10961 10959 10958 10955 10949 10944 10940 10939 10937 10934 10932 10931 10933 10937 10939
10973 10970 10976 10972 10975 10972 10974 10975 10977 10980 10982 10983 10984 10984 10985 10986 10985 10986 10986 10986 10986 10986 10985 10984 10983 10982 10981 10980 10979 10977 10975 10971 10967 10962 10958 10957 10955 10952 10946 10942 10938 10936 10935 10934 10931 10929 10930 10934 10935
10971 10971 10976 10974 10971 10974 10975 10975 10975 10979 10981 10981 10981 10982 10983 10984 10984 10984 10983 10983 10983 10982 10981 10980 10980 10980 10979 10978 10976 10974 10972 10968 10963 10958 10956 10956 10955 10953 10947 10941 10938 10936 10933 10932 10930 10928 10927 10931 10932
10970 10970 10973 10973 10972 10972 10970 10976 10976 10979 10980 10980 10981 10981 10981 10982 10982 10982 10982 10982 10981 10980 10980 10978 10978 10978 10977 10975 10974 10973 10970 10966 10961 10957 10954 10955 10955 10952 10949 10944 10940 10934 10934 10933 10930 10928 10927 10929 10932
10971 10971 10972 10973 10974 10974 10974 10976 10970 10984 10979 10980 10979 10980 10981 10983 10982 10982 10982 10981 10981 10980 10979 10978 10977 10977 10976 10973 10972 10971 10968 10965 10960 10955 10953 10955 10952 10945 10950 10944 10939 10937 10936 10934 10930 10927 10927 10929 10931
10974 10972 10972 10975 10973 10975 10978 10975 10974 10977 10978 10978 10978 10979 10980 10982 10982 10981 10980 10980 10979 10978 10977 10976 10975 10975 10974 10973 10971 10968 10966 10964 10959 10955 10952 10951 10952 10952 10950 10946 10941 10938 10936 10931 10928 10926 10926 10929 10930
10978 10976 10974 10974 10977 10980 10983 10980 10979 10978 10978 10978 10979 10979 10980 10981 10980 10979 10978 10977 10977 10976 10975 10974 10973 10972 10971 10970 10969 10966 10964 10962 10958 10954 10950 10949 10948 10947 10945 10942 10939 10938 10934 10930 10927 10927 10929 10930 10929
10984 10980 10977 10975 10976 10979 10981 10984 10984 10982 10981 10980 10979 10978 10979 10979 10977 10977 10977 10976 10974 10974 10973 10973 10972 10971 10970 10968 10968 10965 10962 10959 10957 10954 10950 10947 10945 10943 10941 10939 10937 10934 10933 10931 10931 10930 10929 10929 10928
10988 10983 10980 10979 10978 10979 10981 10980 10979 10979 10979 10978 10977 10978 10978 10977 10976 10975 10975 10974 10973 10973 10972 10972 10970 10969 10967 10965 10964 10961 10958 10957 10955 10953 10950 10948 10946 10942 10939 10936 10934 10934 10933 10931 10931 10930 10929 10926 10926
10991 10988 10986 10984 10983 10981 10981 10980 10978 10979 10978 10979 10978 10978 10977 10977 10976 10975 10974 10973 10972 10971 10970 10969 10968 10967 10964 10962 10960 10958 10956 10955 10953 10951 10949 10947 10945 10941 10938 10936 10932 10931 10930 10929 10930 10928 10925 10924 10923
10994 10992 10989 10987 10986 10984 10982 10981 10979 10980 10979 10979 10979 10979 10978 10977 10975 10974 10973 10972 10971 10970 10968 10967 10965 10964 10962 10960 10958 10956 10953 10951 10949 10948 10945 10943 10941 10938 10935 10932 10930 10927 10926 10923 10922 10921 10921 10920 10919
10995 10994 10992 10992 10990 10991 10988 10985 10983 10983 10982 10980 10980 10980 10980 10978 10977 10976 10974 10972 10970 10969 10967 10966 10964 10962 10960 10956 10955 10952 10949 10946 10946 10944 10941 10938 10934 10933 10929 10926 10923 10920 10917 10916 10916 10913 10912 10912 10913
10997 10995 10995 10994 10993 10990 10990 10988 10988 10989 10986 10984 10982 10982 10981 10980 10979 10977 10975 10973 10972 10970 10968 10966 10963 10960 10958 10955 10952 10949 10946 10942 10940 10937 10933 10931 10927 10925 10922 10919 10915 10913 10911 10909 10908 10905 10905 10904 10905
10997 10995 10994 10993 10992 10993 10990 10989 10990 10989 10988 10985 10984 10983 10981 10980 10979 10977 10974 10971 10969 10967 10966 10964 10962 10959 10956 10952 10948 10943 10940 10937 10933 10931 10928 10923 10920 10917 10914 10911 10909 10906 10902 10901 10899 10897 10894 10893 10896
10996 10995 10994 10992 10991 10989 10989 10989 10985 10989 10988 10985 10984 10983 10981 10978 10976 10975 10973 10972 10970 10968 10965 10962 10958 10955 10951 10948 10944 10940 10935 10930 10925 10921 10918 10914 10912 10909 10905 10902 10899 10897 10893 10892 10889 10888 10886 10883 10885
10993 10993 10993 10992 10991 10989 10988 10987 10989 10989 10986 10983 10983 10983 10982 10979 10976 10975 10973 10972 10969 10965 10961 10958 10955 10952 10947 10944 10940 10935 10929 10925 10920 10915 10910 10905 10900 10897 10894 10890 10888 10885 10883 10881 10879 10877 10876 10874 10873
10989 10990 10990 10990 10989 10988 10985 10985 10985 10984 10984 10983 10980 10980 10980 10978 10975 10971 10969 10967 10964 10961 10957 10954 10950 10947 10942 10938 10933 10928 10923 10919 10912 10907 10901 10895 10890 10885 10882 10879 10876 10873 10871 10869 10867 10865 10864 10862 10861
10984 10985 10985 10986 10986 10985 10983 10981 10983 10979 10982 10979 10975 10970 10973 10972 10970 10967 10962 10959 10957 10954 10951 10949 10945 10941 10937 10931 10927 10922 10917 10910 10904 10898 10892 10886 10879 10874 10869 10868 10865 10861 10859 10856 10855 10853 10852 10850 10849
10978 10979 10981 10981 10981 10980 10981 10979 10978 10978 10977 10977 10974 10971 10969 10966 10962 10961 10958 10954 10950 10947 10943 10939 10936 10932 10928 10923 10917 10912 10906 10901 10896 10891 10884 10878 10873 10867 10861 10855 10852 10848 10845 10843 10842 10841 10838 10838 10837
10972 10972 10973 10974 10975 10975 10975 10973 10973 10974 10975 10974 10972 10970 10962 10960 10957 10953 10950 10947 10944 10940 10937 10933 10929 10925 10920 10916 10911 10906 10902 10895 10888 10881 10876 10869 10862 10857 10850 10845 10840 10835 10832 10830 10830 10828 10825 10824 10822
10960 10964 10963 10966 10967 10967 10968 10969 10966 10965 10964 10963 10962 10959 10960 10954 10951 10949 10946 10942 10938 10934 10931 10926 10922 10918 10913 10908 10903 10896 10889 10885 10880 10873 10866 10859 10852 10846 10840 10833 10829 10824 10821 10818 10816 10814 10811 10810 10806
10950 10951 10953 10956 10958 10959 10958 10958 10962 10964 10959 10958 10956 10954 10951 10952 10942 10941 10941 10937 10931 10927 10923 10921 10916 10911 10907 10901 10895 10889 10882 10874 10866 10861 10855 10848 10841 10834 10827 10820 10813 10808 10804 10803 10801 10799 10796 10793 10789
10941 10942 10942 10945 10948 10949 10946 10949 10952 10956 10953 10952 10952 10950 10946 10942 10942 10934 10932 10930 10925 10921 10915 10913 10909 10905 10900 10893 10888 10882 10875 10867 10860 10852 10845 10838 10830 10822 10813 10806 10800 10795 10790 10786 10784 10783 10781 10776 10770
10929 10932 10935 10933 10937 10937 10937 10933 10944 10943 10942 10943 10941 10939 10937 10934 10931 10926 10922 10920 10914 10910 10907 10901 10899 10894 10889 10882 10876 10869 10862 10854 10850 10843 10835 10827 10818 10809 10800 10791 10785 10779 10774 10769 10766 10764 10761 10755 10749